Wind_Speed
7 7 6 4 3 3 2 2 3 4 4 4 5 5 6 6 7 8 9 11 12 12 13 14 15 16 17 16 14 10 7 6 5 6 6 6 6 5 5 5 6 6 6
7 7 6 5 4 3 3 4 4 5 5 5 6 6 6 6 6 7 8 9 11 12 13 14 15 15 16 15 14 12 9 6 5 5 5 5 5 4 3 4 4 4 5
7 6 6 5 4 4 4 5 6 6 7 7 7 7 7 6 6 7 7 9 10 12 14 15 15 15 15 15 14 13 10 7 5 4 4 3 3 3 3 3 3 3 4
7 6 6 6 5 6 6 7 7 8 8 8 9 9 9 9 8 9 9 10 11 13 14 15 16 16 15 15 14 13 11 8 6 4 2 2 1 2 2 2 3 3 3
6 6 7 7 7 8 8 9 10 10 10 10 11 11 11 12 12 13 13 13 14 14 15 16 17 17 17 16 15 14 12 10 8 5 3 1 0 1 1 2 2 3 3
6 7 8 9 9 10 11 12 12 13 13 13 14 14 14 14 15 15 16 16 17 17 17 18 18 18 18 18 17 15 13 11 9 7 5 3 2 2 2 2 3 3 3
8 9 10 11 12 13 13 14 15 15 15 15 16 16 16 16 16 17 18 19 20 20 20 20 21 21 20 20 19 18 16 14 12 10 8 6 5 4 4 4 3 3 3
10 11 12 13 14 15 16 17 17 17 17 17 17 17 17 18 18 18 18 19 20 21 22 23 23 23 23 22 21 21 19 18 16 15 13 10 9 7 6 5 5 5 5
11 13 14 15 16 17 18 19 19 19 19 19 19 18 19 19 20 21 22 22 22 23 24 24 26 25 25 25 25 24 23 22 20 19 18 15 13 12 10 9 8 7 7
13 14 15 17 18 19 20 21 21 21 22 21 21 21 21 22 23 23 24 24 24 24 25 25 26 27 27 28 28 27 26 25 24 22 22 20 18 16 15 13 12 10 9
16 17 17 18 20 21 21 22 23 23 24 24 23 23 24 24 25 25 25 25 25 25 24 25 26 28 29 29 30 30 28 28 28 26 25 25 23 21 19 18 16 15 13
18 19 20 20 22 23 24 24 24 25 25 26 26 27 27 27 27 27 27 25 25 25 25 24 24 26 28 30 30 30 30 31 30 29 27 27 26 25 23 22 20 19 18
21 21 23 24 25 25 25 25 26 26 27 28 28 29 29 29 28 27 27 26 25 25 26 25 24 25 26 27 29 29 29 31 32 31 30 28 28 28 27 25 23 23 21
24 25 25 26 26 26 26 26 26 27 28 29 30 30 30 30 29 28 27 27 27 26 26 26 25 26 26 27 29 29 29 30 31 31 30 29 29 29 28 26 25 24 23
27 27 27 26 27 27 27 27 27 28 29 30 31 31 31 31 30 28 28 28 28 27 26 26 26 26 25 25 26 27 29 29 29 30 30 30 29 30 29 27 25 25 24
27 28 27 27 27 28 28 29 30 31 32 32 32 32 31 30 29 29 29 29 29 28 27 27 26 25 25 25 25 25 28 29 29 30 31 30 30 30 29 27 25 25 25
25 25 25 26 27 28 30 31 32 34 34 34 34 33 32 31 30 30 30 30 30 30 29 27 27 25 25 24 23 23 24 27 28 30 30 31 31 30 29 27 26 25 25
23 24 25 26 28 30 32 33 35 36 36 36 35 35 34 33 33 32 31 31 31 31 30 29 27 26 25 24 23 24 24 26 27 28 29 30 31 30 29 29 28 26 26
24 25 27 29 31 32 34 35 36 37 37 37 36 36 36 35 34 33 32 32 32 32 31 30 28 26 25 25 23 22 23 24 26 28 29 29 30 30 31 30 29 29 28
25 28 30 31 33 34 36 37 37 38 38 38 37 36 35 35 34 34 34 34 33 33 33 31 29 27 26 25 23 22 22 22 24 26 27 28 28 30 31 31 31 30 30
26 28 31 33 34 36 37 37 38 37 37 37 37 36 35 35 35 35 35 35 35 34 34 33 32 29 28 26 24 23 23 22 22 25 26 27 28 30 30 29 31 31 32
25 28 30 31 33 34 35 35 36 35 35 35 36 35 35 34 35 35 35 36 36 35 35 35 34 32 31 29 27 25 24 23 23 24 26 27 29 30 30 30 31 31 32
23 25 26 28 30 31 32 33 34 34 35 34 35 35 34 33 33 33 33 34 35 35 35 35 35 34 33 32 29 28 26 25 24 24 25 26 27 29 30 30 32 31 32
23 24 26 27 29 30 31 32 33 33 34 34 34 34 35 35 34 34 33 32 32 33 33 34 34 34 34 34 32 31 30 28 27 26 25 25 27 28 30 32 33 32 32
24 25 26 27 28 30 31 32 33 34 34 35 35 35 36 36 36 35 34 32 31 31 31 31 32 33 34 35 35 34 32 31 30 29 27 26 27 28 30 33 34 34 33
27 27 28 29 29 31 32 33 35 35 36 37 37 37 37 37 37 37 35 33 32 31 30 30 30 30 31 33 35 36 36 34 33 32 30 29 28 29 30 32 34 35 35
Wind_Direction
352 354 354 352 349 330 314 318 333 343 348 352 358 3 7 5 0 354 349 344 341 340 341 345 349 353 357 1 2 359 357 5 23 38 48 60 75 98 108 108 109 104 97
5 4 360 356 348 334 325 330 340 345 346 347 349 351 354 353 350 345 338 332 329 329 330 332 335 340 343 349 354 355 353 353 5 24 39 52 69 89 119 128 126 120 106
11 10 7 5 2 352 345 345 346 344 340 338 337 337 335 333 330 326 320 316 314 314 316 318 321 325 328 333 341 346 348 346 348 3 25 44 64 84 110 149 159 146 127
10 3 1 356 346 337 333 332 334 332 329 325 323 322 318 311 306 303 301 299 298 299 301 304 307 310 314 318 324 331 337 339 338 340 357 38 69 102 121 151 173 173 155
350 342 338 333 322 320 320 322 322 322 319 317 315 314 311 304 297 291 289 287 287 287 289 290 293 296 299 303 308 313 318 322 325 326 322 312 175 155 162 167 173 183 177
322 321 320 318 313 314 315 316 317 317 315 313 311 309 306 304 299 292 286 283 281 281 281 281 282 285 287 290 293 296 299 301 304 305 307 292 254 222 204 195 185 184 186
309 312 312 312 312 312 313 314 316 316 316 315 313 311 308 306 303 298 291 285 281 277 275 275 275 276 278 279 280 281 281 282 282 283 282 279 268 248 237 229 217 207 200
306 311 312 311 314 315 315 316 318 318 318 319 317 314 311 308 306 303 300 296 290 284 276 271 270 269 269 270 270 270 268 267 267 269 269 267 264 257 254 249 242 234 228
304 305 307 308 311 312 313 316 318 319 320 319 318 316 313 310 308 304 302 299 297 291 284 274 266 264 262 262 263 264 262 259 257 258 262 261 260 257 256 257 255 249 242
295 297 300 304 307 309 312 314 316 318 319 316 313 312 310 310 308 307 305 301 298 297 291 282 270 262 260 258 258 259 258 256 252 249 252 256 256 255 253 254 256 255 252
292 292 295 299 302 305 308 311 312 314 314 312 309 308 307 306 306 305 303 301 298 297 294 289 278 267 261 258 255 254 253 251 249 245 243 247 251 252 252 251 252 254 254
286 287 291 295 297 301 303 306 307 308 308 309 307 306 306 306 305 302 300 300 299 296 293 292 287 277 266 260 258 255 250 247 247 244 239 240 244 247 248 248 250 252 253
282 285 288 291 293 296 298 300 302 304 305 306 306 306 306 305 303 301 299 298 299 297 295 293 291 285 276 269 265 259 253 249 245 243 240 237 239 243 245 245 247 250 252
285 286 288 289 290 292 293 295 297 299 300 302 303 302 302 303 301 300 297 295 295 296 295 294 292 290 285 279 273 266 258 252 246 242 240 238 237 239 242 243 246 248 250
288 289 289 290 291 291 291 292 293 295 297 298 299 299 299 298 297 296 294 292 291 292 292 291 293 294 292 285 279 272 262 257 250 243 239 238 237 238 239 240 243 246 247
290 292 293 293 293 293 294 294 294 295 297 298 298 298 298 296 294 293 292 290 290 291 291 289 290 293 292 289 279 272 265 258 252 246 241 237 237 238 239 241 241 243 243
292 293 292 292 293 294 295 295 296 297 297 297 298 298 297 294 293 292 291 289 288 288 289 289 289 289 288 288 278 270 265 258 251 247 242 238 237 237 237 236 235 237 238
292 292 292 292 293 293 294 294 295 296 296 295 296 295 294 293 291 290 288 286 285 285 285 286 286 286 286 286 280 271 263 256 250 245 243 240 237 234 233 233 234 233 233
291 292 293 293 293 293 294 293 293 293 293 293 293 292 291 290 288 286 285 283 282 282 282 282 282 282 282 282 280 274 264 256 248 242 244 241 236 234 233 232 231 231 231
293 293 293 293 293 293 294 293 294 294 294 293 292 291 289 288 286 284 283 281 280 279 279 279 279 278 277 278 276 272 266 258 251 245 243 239 236 234 233 230 228 229 228
291 291 291 292 293 293 293 294 294 294 294 294 293 292 290 288 286 284 282 280 279 278 277 277 276 275 273 273 272 268 265 261 257 251 245 241 239 235 232 229 227 228 228
291 291 290 291 291 291 292 293 294 295 294 294 293 292 290 287 285 283 281 280 278 277 276 275 274 272 271 269 267 265 262 259 257 254 249 245 241 237 234 230 229 229 226
297 294 294 293 293 293 294 295 296 297 297 296 296 295 293 291 289 286 283 281 279 277 274 272 270 268 267 264 261 259 257 255 254 253 251 248 243 239 234 231 228 227 225
310 306 303 302 300 300 300 300 301 301 301 300 300 299 298 296 294 292 289 286 282 278 275 271 268 264 262 260 257 255 253 252 251 249 249 248 245 240 233 229 225 224 225
321 318 314 310 308 306 305 304 304 303 303 302 302 301 299 298 297 295 293 290 286 282 278 273 268 264 259 256 254 251 249 248 247 246 245 244 244 241 234 229 224 223 222
330 326 322 316 312 308 306 305 305 304 304 303 302 301 300 299 298 296 294 292 289 285 280 275 270 265 259 255 252 249 246 244 241 241 241 241 241 240 236 230 224 222 221
Height
5920 5919 5918 5918 5918 5917 5916 5915 5914 5913 5913 5912 5911 5911 5910 5910 5909 5909 5909 5908 5908 5907 5906 5905 5904 5902 5901 5900 5899 5898 5897 5896 5896 5895 5895 5894 5894 5894 5894 5894 5894 5895 5895
5920 5919 5919 5918 5918 5917 5917 5916 5915 5914 5913 5912 5911 5910 5909 5909 5908 5908 5908 5907 5907 5906 5905 5904 5903 5902 5901 5900 5899 5898 5897 5896 5896 5895 5895 5895 5895 5895 5895 5895 5895 5896 5896
5920 5920 5920 5919 5918 5918 5917 5916 5915 5914 5913 5912 5911 5910 5909 5908 5907 5907 5906 5906 5906 5905 5904 5903 5902 5901 5900 5899 5899 5898 5897 5896 5895 5895 5895 5895 5895 5895 5895 5896 5896 5896 5897
5920 5920 5920 5919 5918 5918 5917 5916 5914 5913 5912 5911 5910 5908 5907 5907 5906 5905 5904 5904 5904 5903 5902 5901 5900 5899 5899 5898 5898 5897 5896 5896 5895 5895 5895 5895 5895 5896 5896 5896 5897 5897 5897
5920 5920 5919 5918 5917 5916 5915 5914 5913 5912 5910 5909 5908 5907 5906 5904 5903 5902 5902 5901 5901 5900 5899 5899 5898 5897 5896 5896 5896 5896 5895 5895 5895 5895 5895 5895 5895 5896 5896 5897 5897 5897 5898
5919 5918 5918 5917 5915 5914 5913 5912 5910 5909 5908 5907 5905 5904 5903 5902 5901 5900 5899 5898 5897 5897 5896 5895 5895 5894 5893 5893 5893 5894 5894 5893 5893 5894 5894 5894 5895 5895 5896 5896 5897 5897 5898
5917 5916 5915 5914 5913 5912 5910 5909 5907 5906 5905 5904 5902 5901 5900 5899 5898 5896 5895 5894 5893 5893 5892 5891 5891 5890 5890 5890 5890 5891 5891 5891 5891 5892 5893 5893 5893 5894 5894 5895 5896 5897 5897
5915 5914 5913 5911 5910 5908 5907 5905 5904 5903 5901 5900 5899 5898 5897 5895 5894 5893 5892 5890 5889 5888 5887 5886 5886 5886 5885 5885 5885 5886 5887 5888 5889 5889 5890 5891 5892 5892 5893 5894 5895 5896 5897
5913 5912 5910 5909 5907 5905 5904 5902 5901 5899 5898 5897 5895 5894 5893 5891 5890 5888 5887 5886 5884 5883 5882 5881 5880 5880 5880 5880 5880 5881 5882 5883 5885 5886 5886 5888 5889 5889 5890 5891 5893 5894 5895
5910 5909 5907 5906 5904 5902 5901 5899 5897 5896 5894 5893 5891 5890 5888 5887 5885 5883 5882 5880 5879 5877 5875 5874 5873 5873 5873 5873 5873 5874 5875 5877 5879 5881 5882 5883 5885 5886 5887 5888 5890 5891 5893
5907 5905 5904 5903 5901 5899 5897 5896 5894 5892 5890 5889 5887 5886 5884 5882 5880 5878 5877 5875 5873 5871 5869 5867 5866 5865 5865 5865 5866 5867 5868 5870 5872 5875 5877 5878 5880 5881 5883 5884 5886 5888 5889
5903 5901 5899 5898 5897 5895 5893 5892 5890 5888 5886 5885 5883 5881 5879 5877 5875 5873 5871 5869 5867 5865 5863 5860 5859 5858 5858 5857 5858 5859 5860 5861 5864 5867 5871 5873 5874 5876 5878 5880 5882 5884 5886
5898 5897 5895 5894 5892 5890 5888 5887 5885 5884 5882 5880 5877 5875 5873 5871 5869 5867 5865 5863 5861 5859 5856 5854 5852 5851 5851 5850 5850 5852 5853 5854 5857 5860 5863 5867 5868 5870 5872 5874 5877 5879 5881
5892 5892 5891 5889 5887 5885 5883 5882 5880 5879 5877 5875 5872 5870 5867 5865 5863 5861 5859 5857 5855 5853 5850 5848 5846 5845 5844 5844 5844 5845 5846 5847 5849 5852 5856 5859 5862 5864 5866 5868 5871 5874 5876
5886 5885 5884 5882 5881 5879 5877 5875 5874 5873 5871 5869 5866 5864 5862 5860 5857 5855 5853 5851 5849 5847 5845 5843 5841 5840 5838 5838 5838 5838 5839 5840 5842 5845 5849 5852 5855 5857 5859 5861 5865 5868 5870
5881 5879 5878 5876 5874 5872 5870 5868 5867 5865 5863 5862 5860 5857 5855 5853 5851 5849 5847 5845 5843 5841 5839 5838 5836 5834 5833 5832 5832 5832 5833 5834 5836 5838 5841 5845 5847 5850 5852 5855 5859 5862 5865
5877 5875 5873 5871 5868 5866 5864 5862 5860 5858 5856 5854 5852 5850 5848 5846 5844 5842 5840 5838 5836 5834 5833 5831 5830 5829 5828 5827 5826 5826 5826 5828 5829 5831 5834 5837 5840 5843 5846 5849 5852 5855 5859
5872 5870 5868 5866 5863 5860 5858 5855 5853 5851 5849 5846 5844 5842 5840 5838 5836 5835 5833 5831 5829 5827 5826 5825 5824 5823 5822 5821 5820 5820 5820 5822 5823 5825 5827 5830 5833 5836 5839 5843 5846 5849 5853
5867 5865 5862 5860 5857 5854 5851 5849 5846 5844 5841 5839 5837 5835 5833 5830 5828 5827 5825 5823 5821 5820 5818 5818 5817 5816 5816 5815 5814 5814 5815 5816 5817 5819 5821 5824 5827 5830 5833 5836 5839 5844 5847
5861 5859 5856 5853 5850 5847 5844 5841 5838 5836 5833 5830 5828 5826 5824 5822 5820 5818 5816 5814 5813 5812 5811 5810 5810 5810 5809 5809 5808 5808 5809 5810 5810 5813 5815 5817 5820 5823 5826 5830 5833 5837 5841
5856 5853 5849 5846 5843 5840 5836 5833 5830 5828 5825 5822 5819 5817 5815 5813 5810 5809 5807 5805 5804 5803 5802 5802 5802 5802 5802 5802 5802 5802 5803 5804 5805 5807 5809 5811 5814 5817 5820 5823 5827 5831 5834
5851 5848 5844 5840 5837 5833 5829 5826 5823 5820 5817 5814 5810 5808 5805 5803 5801 5799 5797 5795 5794 5793 5793 5792 5792 5793 5793 5794 5795 5795 5796 5798 5799 5801 5803 5805 5807 5810 5813 5816 5820 5824 5827
5846 5842 5838 5834 5830 5826 5822 5818 5815 5811 5808 5805 5801 5798 5795 5793 5790 5789 5787 5785 5783 5783 5782 5782 5782 5783 5784 5785 5786 5788 5789 5791 5792 5794 5796 5798 5800 5803 5806 5810 5814 5817 5821
5840 5836 5832 5828 5823 5819 5815 5811 5807 5803 5799 5796 5792 5789 5785 5782 5780 5778 5776 5775 5773 5772 5771 5771 5771 5772 5773 5774 5776 5778 5780 5782 5785 5787 5789 5791 5793 5796 5799 5803 5806 5810 5814
5834 5830 5825 5821 5817 5812 5808 5804 5799 5795 5791 5787 5784 5780 5776 5772 5769 5767 5766 5764 5762 5761 5760 5760 5760 5761 5762 5764 5765 5768 5770 5773 5776 5778 5781 5783 5786 5789 5792 5795 5799 5803 5807
5828 5823 5819 5815 5810 5806 5801 5797 5792 5787 5783 5779 5775 5771 5767 5763 5759 5756 5755 5753 5752 5751 5750 5749 5749 5750 5752 5753 5754 5757 5760 5763 5766 5769 5772 5775 5778 5781 5784 5788 5791 5795 5800